Showing default

GONETS M 18, 46487

Orbit data source: Space-Track

GONETS M 18, 46487 is a payload satellite owned by Gonets (CIS) in LEO that was launched on Mon, 28 Sep 2020 UTC via a SOYUZ-2-1B launch vehicle from the Plesetsk Missile And Space Complex (PKMTR). Payload-class satellites include a variety of spacecraft equipped with specific instruments for various scientific and technological missions. These include communications satellites like Starlink; space stations such as the ISS; scientific satellites like the Hubble; Earth observation satellites from companies like Planet Labs, Umbra, and HawkEye 360; GPS; miniature CubeSats for education and research; and military/defense satellites.

Loading next visibility...
Identifier
46487, 2020-068B
Orbit
LEO
Last TLE update
3 hours ago
Origin
Manufacturer
Resehetnev ISS
Mission
Operational Commercial Communications
Bus & Motor
STRELA-3M, Unknown motor
Mass
225 kg wet, 225 kg dry
Launch date (UTC)
2020-09-28 (5 years ago)
Launch vehicle
SOYUZ-2-1B
Launch site
Plesetsk Missile And Space Complex (PKMTR)
Object type
Payload
Rocket body
Debris
Shape & HBR
Cyl + 1 Ant, 7 m
Radar Cross Section
1.798 m², Large (>1 m²)

Expand to show TLE details & history

TLE from 3 hours ago
0 GONETS M 18
1 46487U 20068B   25129.23765627  .00000016  00000-0  41559-4 0  9997
2 46487  82.4938 238.0387 0020534 190.0346 170.0326 12.42884078209164
Epoch: 2025-05-09T05:42Z
Definitive object data (Epoch: 2025-05-09T05:42:13.501Z)
Latitude
-0.00008°
Longitude
-74.81424°
Altitude
1,513.026 km
Speed
7.101 km/s
True Right ascension
15h 52m 09s
True Declination
0° 00' 00"
Sunlit
Object was in full shadow at TLE epoch
Visualization TLE readout
Latitude
-56.04248°
Longitude
116.33014°
Altitude
1,504.983 km
Speed
7.117 km/s
Apparent Right ascension
04h 50m 48s
Apparent Declination
-48° 43' 04"
Sunlit
Object is in daylight
Visualization observer readout
Local Sidereal Time
17:03:28
Azimuth
166.651° S
Elevation
-80.913°
Doppler factor
1
Orbital elements
Apogee altitude
1,507.912 km
Perigee altitude
1,475.592 km
Semi-major axis
7,869.889 km
Eccentricity
0.0020534
Inclination
82.4938°
RAAN
238.0387°
Arg. of periapsis
190.0346°
True anomaly
170.07323°
Mean anomaly
170.0326°
Eccentric anomaly
170.05292°
Mean motion
3.10878 °/min
BSTAR
0.000041559
Orbital period
115.8 mins
Loading maneuver chart data...
Loading SW <> Apogee altitude chart data...
Loading historical data...
Loading historical data...
Loading historical data...
Loading historical data...
Loading historical data...
Loading historical data...
Loading historical data...

GONETS M 18 Visibility forecast

Observer location: undefined°, undefined°

Span
Click to sort rows by Start time (UTC) header in descending order
Start Az.
Max El. time (UTC)
Max El. Az.
Max El.
End time (UTC)
End Az.
13 mins2025-05-09 09:42:14.295Z244.313° WSW2025-05-09 09:48:14.295Z289.181° WNW22.042°2025-05-09 09:55:14.295Z343.597° N
14 mins2025-05-09 17:55:14.295Z13.103° NNE2025-05-09 18:02:14.295Z77.865° E29.487°2025-05-09 18:09:14.295Z133.609° SE
14 mins2025-05-09 19:52:14.295Z337.957° N2025-05-09 19:59:14.295Z261.218° W37.407°2025-05-09 20:06:14.295Z200.819° SSW
14 mins2025-05-10 06:55:14.295Z148.452° SSE2025-05-10 07:02:14.295Z83.662° E33.144°2025-05-10 07:09:14.295Z23.768° NE
|